TimeCDT,TemperatureF,Dew PointF,Humidity,Sea Level PressureIn,VisibilityMPH,Wind Direction,Wind SpeedMPH,Gust SpeedMPH,PrecipitationIn,Events,Conditions,WindDirDegrees,DateUTC
12:15 AM,57.7,50.2,76,30.08,10.0,East,3.5,-,N/A,,Clear,100,2013-07-29 05:15:00
12:35 AM,57.4,50.0,76,30.08,10.0,Calm,Calm,-,N/A,,Clear,0,2013-07-29 05:35:00
12:55 AM,56.5,50.4,80,30.08,10.0,Calm,Calm,-,N/A,,Clear,0,2013-07-29 05:55:00
1:15 AM,57.2,50.0,77,30.09,10.0,ESE,3.5,-,N/A,,Clear,110,2013-07-29 06:15:00
1:35 AM,55.8,49.3,79,30.08,10.0,East,3.5,-,N/A,,Clear,90,2013-07-29 06:35:00
1:55 AM,56.1,49.6,79,30.08,10.0,ESE,3.5,-,N/A,,Clear,120,2013-07-29 06:55:00
2:15 AM,54.9,49.6,83,30.08,10.0,SE,3.5,-,N/A,,Clear,140,2013-07-29 07:15:00
2:55 AM,52.0,48.2,87,30.09,10.0,South,4.6,-,N/A,,Clear,170,2013-07-29 07:55:00
3:15 AM,52.2,48.4,87,30.09,10.0,South,3.5,-,N/A,,Clear,180,2013-07-29 08:15:00
3:35 AM,51.6,48.0,87,30.10,10.0,Calm,Calm,-,N/A,,Clear,0,2013-07-29 08:35:00
3:55 AM,51.8,48.4,88,30.09,10.0,SE,3.5,-,N/A,,Clear,140,2013-07-29 08:55:00
4:15 AM,51.3,47.8,88,30.09,10.0,South,4.6,-,N/A,,Clear,170,2013-07-29 09:15:00
4:35 AM,50.2,46.9,89,30.09,10.0,SSE,3.5,-,N/A,,Clear,160,2013-07-29 09:35:00
4:55 AM,49.6,46.4,89,30.09,10.0,SSE,3.5,-,N/A,,Clear,160,2013-07-29 09:55:00
5:15 AM,49.1,46.0,89,30.10,10.0,Calm,Calm,-,N/A,,Clear,0,2013-07-29 10:15:00
5:35 AM,50.0,47.1,90,30.10,10.0,Calm,Calm,-,N/A,,Clear,0,2013-07-29 10:35:00
5:55 AM,48.6,45.3,89,30.10,10.0,Calm,Calm,-,N/A,,Clear,0,2013-07-29 10:55:00
6:15 AM,49.8,46.8,89,30.11,10.0,South,3.5,-,N/A,,Clear,170,2013-07-29 11:15:00
6:35 AM,49.5,46.6,90,30.11,10.0,South,4.6,-,N/A,,Clear,170,2013-07-29 11:35:00
6:55 AM,51.8,48.9,90,30.12,10.0,SSE,3.5,-,N/A,,Clear,160,2013-07-29 11:55:00
7:15 AM,54.7,50.5,86,30.12,10.0,South,4.6,-,N/A,,Clear,170,2013-07-29 12:15:00
7:35 AM,57.4,52.2,83,30.11,10.0,Calm,Calm,-,N/A,,Clear,0,2013-07-29 12:35:00
7:55 AM,59.4,52.9,79,30.11,10.0,ESE,4.6,-,N/A,,Clear,120,2013-07-29 12:55:00
8:15 AM,61.5,54.3,77,30.11,10.0,SE,3.5,-,N/A,,Clear,140,2013-07-29 13:15:00
8:35 AM,63.1,54.1,72,30.13,10.0,SSE,5.8,-,N/A,,Clear,160,2013-07-29 13:35:00
8:55 AM,65.1,53.4,66,30.13,10.0,SSE,9.2,-,N/A,,Clear,150,2013-07-29 13:55:00
9:15 AM,66.6,54.3,65,30.13,10.0,SSE,6.9,-,N/A,,Clear,150,2013-07-29 14:15:00
9:35 AM,68.5,53.6,59,30.12,10.0,SE,10.4,-,N/A,,Clear,140,2013-07-29 14:35:00
9:55 AM,68.4,52.3,57,30.11,10.0,SE,6.9,10.4,N/A,,Clear,140,2013-07-29 14:55:00
10:15 AM,68.9,53.1,57,30.11,10.0,SE,8.1,-,N/A,,Clear,140,2013-07-29 15:15:00
10:35 AM,68.9,52.9,57,30.11,10.0,SE,9.2,-,N/A,,Clear,130,2013-07-29 15:35:00
10:55 AM,68.9,53.4,58,30.11,10.0,SE,6.9,-,N/A,,Clear,130,2013-07-29 15:55:00
11:15 AM,68.0,53.6,60,30.11,10.0,SE,8.1,-,N/A,,Clear,130,2013-07-29 16:15:00
11:35 AM,69.8,54.1,57,30.13,10.0,SE,8.1,-,N/A,,Mostly Cloudy,140,2013-07-29 16:35:00
11:55 AM,70.2,53.4,55,30.12,10.0,SE,10.4,-,N/A,,Overcast,130,2013-07-29 16:55:00
12:15 PM,71.6,53.1,52,30.11,10.0,SE,9.2,-,N/A,,Overcast,140,2013-07-29 17:15:00
12:35 PM,71.1,52.2,51,30.10,10.0,SE,9.2,-,N/A,,Overcast,130,2013-07-29 17:35:00
12:55 PM,72.5,53.6,51,30.09,10.0,SE,13.8,-,N/A,,Overcast,130,2013-07-29 17:55:00
1:15 PM,73.0,54.0,51,30.10,10.0,SE,10.4,17.3,N/A,,Overcast,140,2013-07-29 18:15:00
1:35 PM,72.5,53.2,51,30.10,10.0,SE,8.1,-,N/A,,Overcast,130,2013-07-29 18:35:00
1:55 PM,72.0,52.7,51,30.10,10.0,SE,9.2,-,N/A,,Overcast,130,2013-07-29 18:55:00
2:15 PM,72.5,52.7,50,30.09,10.0,SE,9.2,-,N/A,,Overcast,140,2013-07-29 19:15:00
2:35 PM,73.4,53.4,49,30.09,10.0,SSE,10.4,-,N/A,,Mostly Cloudy,150,2013-07-29 19:35:00
2:55 PM,72.3,53.1,51,30.10,10.0,SSE,11.5,-,N/A,,Mostly Cloudy,150,2013-07-29 19:55:00
3:15 PM,72.0,53.4,52,30.10,10.0,SSE,8.1,-,N/A,,Light Drizzle,150,2013-07-29 20:15:00
3:35 PM,71.1,53.8,54,30.10,10.0,SSE,6.9,-,N/A,Rain,Light Rain,160,2013-07-29 20:35:00
3:55 PM,69.3,55.6,62,30.10,10.0,SSE,8.1,-,N/A,Rain,Light Rain,160,2013-07-29 20:55:00
4:15 PM,69.4,57.4,65,30.09,10.0,SE,5.8,-,N/A,,Light Drizzle,140,2013-07-29 21:15:00
4:35 PM,69.3,58.5,68,30.09,10.0,SE,5.8,-,N/A,Rain,Light Rain,140,2013-07-29 21:35:00
4:55 PM,69.1,59.4,71,30.09,10.0,SE,5.8,-,N/A,Rain,Light Rain,140,2013-07-29 21:55:00
5:15 PM,69.1,57.9,68,30.09,10.0,SSE,5.8,-,0.01,Rain,Light Rain,150,2013-07-29 22:15:00
5:35 PM,68.9,58.3,69,30.08,10.0,SE,6.9,-,0.01,Rain,Light Rain,130,2013-07-29 22:35:00
5:55 PM,68.5,58.8,71,30.08,10.0,SE,6.9,-,0.01,Rain,Light Rain,130,2013-07-29 22:55:00
6:15 PM,68.4,58.5,71,30.07,10.0,SE,6.9,-,N/A,,Scattered Clouds,140,2013-07-29 23:15:00
6:35 PM,68.2,59.0,72,30.07,10.0,SE,5.8,-,N/A,Rain,Light Rain,130,2013-07-29 23:35:00
6:55 PM,68.2,59.0,72,30.06,10.0,SE,5.8,-,N/A,,Scattered Clouds,130,2013-07-29 23:55:00
7:15 PM,68.5,59.7,73,30.06,10.0,ESE,4.6,-,N/A,,Scattered Clouds,120,2013-07-30 00:15:00
7:35 PM,68.9,59.4,72,30.07,10.0,ESE,4.6,-,N/A,,Clear,110,2013-07-30 00:35:00
7:55 PM,68.2,59.9,75,30.07,10.0,SE,3.5,-,N/A,,Clear,130,2013-07-30 00:55:00
8:15 PM,67.6,58.3,72,30.07,10.0,SE,6.9,-,N/A,,Clear,140,2013-07-30 01:15:00
8:35 PM,65.5,57.7,76,30.07,10.0,SE,4.6,-,N/A,,Clear,140,2013-07-30 01:35:00
8:55 PM,64.0,57.4,79,30.08,10.0,SSE,4.6,-,N/A,,Clear,150,2013-07-30 01:55:00
9:15 PM,63.5,57.7,81,30.08,10.0,SE,4.6,-,N/A,,Mostly Cloudy,130,2013-07-30 02:15:00
9:35 PM,65.1,58.1,78,30.09,10.0,SE,4.6,-,N/A,,Overcast,130,2013-07-30 02:35:00
9:55 PM,65.3,58.3,78,30.10,10.0,SE,3.5,-,N/A,,Overcast,130,2013-07-30 02:55:00
10:15 PM,65.3,58.3,78,30.10,10.0,SE,4.6,-,N/A,,Overcast,130,2013-07-30 03:15:00
10:35 PM,65.1,58.5,79,30.10,10.0,SE,4.6,-,N/A,,Overcast,140,2013-07-30 03:35:00
10:55 PM,65.3,58.1,77,30.09,10.0,ESE,8.1,-,N/A,,Overcast,120,2013-07-30 03:55:00
11:15 PM,64.9,57.7,77,30.08,10.0,ESE,6.9,-,N/A,,Overcast,120,2013-07-30 04:15:00
11:35 PM,64.8,57.9,78,30.09,10.0,ESE,4.6,-,N/A,,Overcast,120,2013-07-30 04:35:00
11:55 PM,64.9,58.1,78,30.09,10.0,SE,4.6,-,N/A,,Overcast,130,2013-07-30 04:55:00